Murray, KY

9:39 PM CDT on April 30, 2017 (GMT -0500)
Kyle-Oakley

Weather History for KCEY - December, 2012

Change the Weather History Date:

Wednesday, December 19, 2012

  Actual Average (KPAH) Record (KPAH)
Temperature  
Mean Temperature 48 °F -  
Max Temperature 62 °F 47 °F 67 °F (1939)
Min Temperature 35 °F 27 °F 3 °F (1963)
Degree Days  
Heating Degree Days 16    
Moisture  
Dew Point 43 °F    
Average Humidity 73    
Maximum Humidity 100    
Minimum Humidity 51    
Precipitation  
Precipitation 0.00 in - - ()
Sea Level Pressure  
Sea Level Pressure 29.91 in    
Wind  
Wind Speed 7 mph (SSE)    
Max Wind Speed 20 mph    
Max Gust Speed 30 mph    
Visibility 10 miles    
Events      
Averages and records for this station are not official NWS values.
T = Trace of Precipitation, MM = Missing Value Source: NWS Daily Summary

Daily Weather History Graph

Daily Weather History Graph

Search for Another Location

Airport or City:

Trip Planner

Search our weather history database for the weather conditions in past years. The results will help you decide how hot, cold, wet, or windy it might be!

Date:

Astronomy

Dec. 19, 2012 Rise Set
Actual Time 7:01 AM CST 4:40 PM CST
Civil Twilight 6:32 AM CST 5:09 PM CST
Nautical Twilight 5:59 AM CST 5:41 PM CST
Astronomical Twilight 5:28 AM CST 6:13 PM CST
Moon 11:20 AM CST (12/19) 11:56 PM CST (12/19)
Length of Visible Light 10h 37m
Length of Day
9h 39m
Waxing Crescent, 45% of the Moon is Illuminated
Dec 19
Waxing Crescent
Dec 19
First Quarter
Dec 28
Full
Jan 4
Last Quarter
Jan 11
New

Hourly Weather History & Observations

Time (CST) Temp. Windchill Dew Point Humidity Pressure Visibility Wind Dir Wind Speed Gust Speed Precip Events Conditions
12:15 AM 46.4 °F 43.5 °F 39.2 °F 76% 29.91 in 10.0 mi SSW 5.8 mph - N/A   Clear
12:35 AM 46.4 °F 42.4 °F 39.2 °F 76% 29.91 in 10.0 mi SSW 8.1 mph - N/A   Clear
12:55 AM 46.4 °F 42.9 °F 39.2 °F 76% 29.92 in 10.0 mi SSW 6.9 mph - N/A   Clear
1:15 AM 46.4 °F 42.9 °F 39.2 °F 76% 29.92 in 10.0 mi SSW 6.9 mph - N/A   Clear
1:35 AM 46.4 °F 42.9 °F 39.2 °F 76% 29.93 in 10.0 mi South 6.9 mph - N/A   Clear
1:55 AM 46.4 °F 42.9 °F 39.2 °F 76% 29.94 in 10.0 mi South 6.9 mph - N/A   Clear
2:15 AM 44.6 °F 41.4 °F 39.2 °F 81% 29.94 in 10.0 mi South 5.8 mph - N/A   Clear
2:35 AM 44.6 °F 42.2 °F 39.2 °F 81% 29.94 in 10.0 mi South 4.6 mph - N/A   Clear
2:55 AM 42.8 °F - 37.4 °F 81% 29.94 in 10.0 mi Calm Calm - N/A   Clear
3:15 AM 44.6 °F - 39.2 °F 81% 29.94 in 10.0 mi Calm Calm - N/A   Clear
3:35 AM 41.0 °F - 37.4 °F 87% 29.94 in 10.0 mi Calm Calm - N/A   Clear
3:55 AM 39.2 °F 35.0 °F 37.4 °F 93% 29.95 in 10.0 mi South 5.8 mph - N/A   Clear
4:15 AM 41.0 °F 39.0 °F 39.2 °F 93% 29.95 in 10.0 mi SE 3.5 mph - N/A   Clear
4:35 AM 41.0 °F 35.8 °F 37.4 °F 87% 29.96 in 10.0 mi NNE 8.1 mph - N/A   Clear
4:55 AM 39.2 °F - 37.4 °F 93% 29.96 in 10.0 mi Calm Calm - N/A   Clear
5:15 AM 39.2 °F 35.9 °F 37.4 °F 93% 29.96 in 10.0 mi ENE 4.6 mph - N/A   Clear
5:35 AM 39.2 °F 35.9 °F 37.4 °F 93% 29.97 in 10.0 mi East 4.6 mph - N/A   Clear
5:55 AM 37.4 °F 33.8 °F 37.4 °F 100% 29.98 in 10.0 mi East 4.6 mph - N/A   Clear
6:15 AM 35.6 °F 31.7 °F 35.6 °F 100% 29.98 in 10.0 mi ESE 4.6 mph - N/A   Clear
6:35 AM 37.4 °F 34.9 °F 37.4 °F 100% 30.00 in 10.0 mi ESE 3.5 mph - N/A   Clear
6:55 AM 37.4 °F 33.8 °F 37.4 °F 100% 30.00 in 10.0 mi East 4.6 mph - N/A   Clear
7:15 AM 37.4 °F 32.8 °F 37.4 °F 100% 30.00 in 10.0 mi ESE 5.8 mph - N/A   Clear
7:35 AM 37.4 °F 32.8 °F 37.4 °F 100% 29.99 in 10.0 mi SE 5.8 mph - N/A   Clear
7:55 AM 41.0 °F 39.0 °F 39.2 °F 93% 30.00 in 10.0 mi ESE 3.5 mph - N/A   Clear
8:15 AM 44.6 °F 41.4 °F 41.0 °F 87% 29.99 in 10.0 mi SE 5.8 mph - N/A   Clear
8:35 AM 46.4 °F 42.4 °F 41.0 °F 81% 29.99 in 10.0 mi SE 8.1 mph - N/A   Clear
8:55 AM 46.4 °F 42.9 °F 41.0 °F 81% 29.99 in 10.0 mi SE 6.9 mph - N/A   Clear
9:15 AM 48.2 °F - 42.8 °F 82% 29.99 in 10.0 mi SE 6.9 mph - N/A   Clear
9:35 AM 48.2 °F - 42.8 °F 82% 29.99 in 10.0 mi SE 6.9 mph - N/A   Clear
9:55 AM 50.0 °F - 42.8 °F 76% 29.99 in 10.0 mi SSE 6.9 mph - N/A   Clear
10:15 AM 51.8 °F - 44.6 °F 76% 30.00 in 10.0 mi SSE 6.9 mph - N/A   Clear
10:35 AM 53.6 °F - 44.6 °F 72% 29.98 in 10.0 mi SSE 6.9 mph - N/A   Clear
10:55 AM 53.6 °F - 44.6 °F 72% 29.97 in 10.0 mi SSE 8.1 mph - N/A   Clear
11:15 AM 55.4 °F - 46.4 °F 72% 29.96 in 10.0 mi SSE 6.9 mph - N/A   Clear
11:55 AM 57.2 °F - 46.4 °F 67% 29.94 in 10.0 mi South 8.1 mph - N/A   Clear
12:15 PM 59.0 °F - 46.4 °F 63% 29.93 in 10.0 mi SSE 4.6 mph - N/A   Clear
12:35 PM 59.0 °F - 46.4 °F 63% 29.93 in 10.0 mi South 6.9 mph - N/A   Clear
12:55 PM 59.0 °F - 48.2 °F 67% 29.92 in 10.0 mi SE 8.1 mph - N/A   Clear
1:15 PM 59.0 °F - 48.2 °F 67% 29.92 in 10.0 mi SSE 11.5 mph - N/A   Clear
1:35 PM 60.8 °F - 48.2 °F 63% 29.91 in 10.0 mi SSE 6.9 mph - N/A   Clear
1:55 PM 60.8 °F - 48.2 °F 63% 29.90 in 10.0 mi SSE 8.1 mph 16.1 mph N/A   Clear
2:15 PM 62.6 °F - 50.0 °F 63% 29.90 in 10.0 mi SSE 5.8 mph - N/A   Partly Cloudy
2:35 PM 62.6 °F - 48.2 °F 59% 29.89 in 10.0 mi SE 9.2 mph - N/A   Mostly Cloudy
2:55 PM 60.8 °F - 48.2 °F 63% 29.88 in 10.0 mi SE 8.1 mph - N/A   Mostly Cloudy
3:15 PM 59.0 °F - 48.2 °F 67% 29.88 in 10.0 mi SSE 5.8 mph - N/A   Overcast
3:35 PM 60.8 °F - 50.0 °F 68% 29.89 in 10.0 mi SE 6.9 mph - N/A   Overcast
3:55 PM 59.0 °F - 50.0 °F 72% 29.89 in 10.0 mi SSE 5.8 mph - N/A   Overcast
4:15 PM 59.0 °F - 50.0 °F 72% 29.89 in 10.0 mi SSE 5.8 mph - N/A   Scattered Clouds
4:35 PM 59.0 °F - 50.0 °F 72% 29.88 in 10.0 mi SE 8.1 mph - N/A   Partly Cloudy
4:55 PM 57.2 °F - 50.0 °F 77% 29.88 in 10.0 mi SSE 4.6 mph - N/A   Clear
5:15 PM 57.2 °F - 50.0 °F 77% 29.88 in 10.0 mi SE 5.8 mph - N/A   Mostly Cloudy
5:35 PM 57.2 °F - 50.0 °F 77% 29.88 in 10.0 mi SE 6.9 mph - N/A   Mostly Cloudy
5:55 PM 57.2 °F - 48.2 °F 72% 29.87 in 10.0 mi SE 6.9 mph - N/A   Overcast
6:15 PM 57.2 °F - 48.2 °F 72% 29.87 in 10.0 mi SE 5.8 mph - N/A   Mostly Cloudy
6:35 PM 57.2 °F - 48.2 °F 72% 29.87 in 10.0 mi SE 6.9 mph - N/A   Scattered Clouds
6:55 PM 57.2 °F - 48.2 °F 72% 29.86 in 10.0 mi SSE 8.1 mph - N/A   Partly Cloudy
7:15 PM 57.2 °F - 46.4 °F 67% 29.87 in 10.0 mi SE 4.6 mph - N/A   Clear
7:35 PM 57.2 °F - 44.6 °F 63% 29.86 in 10.0 mi SSE 8.1 mph - N/A   Clear
7:55 PM 57.2 °F - 42.8 °F 59% 29.85 in 10.0 mi SSE 9.2 mph - N/A   Clear
8:15 PM 57.2 °F - 41.0 °F 55% 29.84 in 10.0 mi SSE 9.2 mph 16.1 mph N/A   Clear
8:35 PM 59.0 °F - 41.0 °F 51% 29.85 in 10.0 mi SSE 12.7 mph 19.6 mph N/A   Clear
8:55 PM 57.2 °F - 41.0 °F 55% 29.83 in 10.0 mi South 13.8 mph 23.0 mph N/A   Clear
9:15 PM 59.0 °F - 41.0 °F 51% 29.81 in 10.0 mi South 11.5 mph 24.2 mph N/A   Clear
9:35 PM 59.0 °F - 41.0 °F 51% 29.80 in 10.0 mi South 15.0 mph 25.3 mph N/A   Clear
9:55 PM 59.0 °F - 41.0 °F 51% 29.79 in 10.0 mi South 17.3 mph 28.8 mph N/A   Mostly Cloudy
10:15 PM 59.0 °F - 41.0 °F 51% 29.78 in 10.0 mi South 19.6 mph 28.8 mph N/A   Mostly Cloudy
10:35 PM 59.0 °F - 41.0 °F 51% 29.77 in 10.0 mi South 18.4 mph 24.2 mph N/A   Mostly Cloudy
10:55 PM 59.0 °F - 41.0 °F 51% 29.76 in 10.0 mi SSE 16.1 mph 24.2 mph N/A   Overcast
11:15 PM 59.0 °F - 41.0 °F 51% 29.75 in 10.0 mi South 16.1 mph 27.6 mph N/A   Overcast
11:35 PM 59.0 °F - 41.0 °F 51% 29.74 in 10.0 mi South 17.3 mph 27.6 mph N/A   Overcast
11:55 PM 59.0 °F - 41.0 °F 51% 29.72 in 10.0 mi South 17.3 mph 29.9 mph N/A   Overcast